Wind_Speed
55 56 57 57 57 57 56 56 55 55 55 55 55 55 55 56 56 56 57 56 55 55 54 53 53 51 49 46 43 40 38 35 33 32 32 32 32 33 33 33 34 36 38 35 33 32 31 29 29 29 29 29 28 27 25 26 27 28 29 31 31 31 31
53 54 55 56 57 56 56 56 55 55 55 55 55 55 56 56 56 57 56 56 56 55 54 53 53 52 50 47 44 41 38 35 33 33 33 33 34 34 34 34 34 36 37 37 35 34 33 31 30 30 30 28 28 27 26 27 28 29 30 31 31 32 32
50 52 53 54 55 55 55 55 54 54 55 55 56 56 56 56 57 57 57 56 56 55 54 54 53 52 51 48 45 42 39 36 34 33 33 34 34 34 34 33 34 35 36 37 36 35 34 32 31 31 30 28 28 28 27 29 30 31 31 31 31 32 32
47 49 50 52 53 53 54 54 54 54 54 55 55 56 56 56 57 57 57 57 56 55 54 54 54 53 51 49 46 42 39 36 34 33 34 34 34 34 34 34 34 35 36 37 37 36 34 32 31 31 30 28 28 29 30 31 32 32 32 32 32 32 33
45 46 48 49 51 52 52 53 53 53 54 55 55 55 55 56 56 56 57 56 56 55 54 54 54 53 51 49 46 42 38 36 35 34 34 35 35 35 35 34 35 36 36 37 38 37 35 33 32 31 30 30 30 30 31 33 34 34 33 33 33 33 33
42 43 45 46 47 49 50 51 52 53 54 54 54 54 54 55 55 56 56 56 55 55 54 54 54 52 51 49 45 41 38 35 34 34 35 35 35 35 35 36 36 37 37 38 39 37 36 34 33 33 32 31 30 31 33 35 35 35 34 34 34 34 33
40 41 42 43 44 46 47 49 51 52 53 53 53 54 54 54 55 55 55 55 54 54 54 54 53 52 50 47 44 40 36 34 34 34 35 35 35 35 35 37 37 38 38 39 38 38 37 36 34 34 33 32 31 33 35 36 36 37 35 34 34 34 33
37 38 38 40 41 43 45 47 50 51 52 53 53 53 53 53 54 54 54 53 53 53 53 53 52 51 49 46 42 38 35 33 33 34 35 36 36 36 36 38 38 39 39 39 39 38 37 36 35 35 34 34 34 36 37 36 36 37 37 34 34 34 34
35 35 36 38 39 42 44 46 48 50 51 51 52 52 52 52 52 53 53 53 53 52 52 52 51 49 47 44 40 36 34 33 33 34 35 36 36 36 38 39 39 40 40 40 40 39 38 37 37 37 36 36 37 38 37 35 35 37 37 35 34 35 33
33 34 35 37 38 40 43 45 47 48 49 49 50 50 50 51 51 52 52 52 52 52 52 51 50 48 45 41 38 35 33 33 34 35 36 36 36 37 38 39 40 41 41 40 40 40 38 38 40 39 38 38 38 37 37 36 35 36 36 34 35 36 33
32 33 34 35 37 39 41 43 44 45 46 47 47 48 48 49 50 50 51 51 51 51 51 49 48 46 43 39 36 34 34 34 35 36 37 37 38 38 38 39 40 41 40 40 41 40 39 40 41 40 39 39 38 37 37 36 35 35 34 33 34 36 34
30 31 32 33 35 36 38 40 41 42 43 44 45 46 47 48 49 49 50 50 50 50 49 47 46 44 41 37 35 34 35 35 37 38 38 39 40 40 40 40 40 41 40 40 41 41 41 41 41 40 40 39 37 37 37 36 34 34 34 34 34 36 36
26 27 29 30 32 34 35 37 38 39 40 41 42 43 44 46 47 48 48 48 48 48 47 45 43 41 38 36 34 35 36 37 38 38 39 40 41 42 42 41 41 41 40 40 41 42 43 41 40 40 40 37 36 36 35 35 35 35 34 35 35 37 37
23 25 26 28 29 31 33 34 35 36 36 37 38 38 39 42 43 44 45 46 46 45 44 42 40 38 36 35 35 36 37 38 38 39 40 41 42 43 43 43 43 41 39 39 40 42 42 40 38 39 38 36 35 36 37 37 37 37 36 36 36 37 37
23 24 25 26 27 28 30 31 32 32 32 34 34 32 33 37 39 38 39 41 42 42 40 38 37 36 35 35 36 37 37 38 38 39 41 42 44 44 45 45 45 42 40 39 40 42 42 40 39 38 37 36 35 36 36 36 36 37 37 36 37 37 36
22 23 23 24 25 26 28 29 29 29 29 29 29 27 29 35 37 35 34 34 35 36 36 35 35 35 35 36 36 36 37 38 38 40 42 43 44 44 45 46 45 42 40 39 38 39 40 40 39 37 34 32 31 31 30 29 31 34 35 36 38 39 37
21 22 22 23 23 25 26 27 26 26 26 25 24 25 28 32 34 33 32 31 30 31 33 35 36 36 36 36 37 37 37 37 38 40 41 42 42 42 43 43 41 38 36 35 33 34 34 35 34 33 31 30 30 30 29 29 33 35 34 36 39 40 39
21 21 21 21 21 22 24 24 22 22 22 22 21 23 27 30 31 31 30 29 30 33 35 37 38 37 37 38 38 37 36 36 36 37 39 39 38 38 39 39 35 32 30 29 29 30 31 33 33 33 33 33 33 33 33 34 38 38 37 39 41 41 40
20 19 18 18 18 18 19 18 17 17 18 18 19 22 24 27 29 31 31 32 34 36 38 39 39 38 38 39 38 38 37 35 34 35 36 37 37 39 40 37 33 30 28 27 28 28 28 30 30 31 33 36 36 36 36 36 36 35 36 39 41 41 40
17 17 15 14 13 13 13 13 13 13 14 16 18 21 24 26 30 33 35 37 38 39 40 40 39 39 39 38 37 36 35 34 33 33 35 37 39 41 40 35 32 31 30 29 29 29 29 30 30 29 31 33 36 37 39 40 39 37 35 35 35 36 37
15 14 13 12 12 12 13 14 15 16 17 19 21 24 26 29 32 34 35 37 38 39 40 41 41 42 40 39 38 36 35 34 33 32 34 37 39 39 36 34 35 34 33 32 33 32 32 32 32 32 31 32 34 35 36 39 42 42 42 41 39 38 38
14 14 14 14 15 17 17 19 20 21 21 22 24 26 27 29 31 32 34 36 38 39 40 41 42 42 42 41 41 39 38 37 34 32 34 37 38 36 35 35 37 38 37 38 37 35 35 35 34 35 34 33 32 33 33 35 37 39 40 42 42 42 41
15 16 18 19 20 21 21 22 22 23 23 23 24 24 26 27 28 28 29 33 36 38 39 40 41 41 41 41 40 39 37 35 32 31 32 34 35 35 34 34 35 37 39 40 39 38 37 36 36 38 38 36 34 32 31 31 33 34 35 37 37 38 39
18 20 21 22 23 23 23 23 23 23 23 23 23 24 25 26 26 26 27 30 33 35 36 38 39 39 38 37 36 36 35 33 31 30 30 30 30 30 31 32 33 34 35 35 37 38 39 38 37 38 40 39 36 31 29 29 30 31 32 34 35 35 36
20 21 22 23 23 23 22 21 22 22 22 22 23 23 23 23 24 26 27 29 32 33 33 34 34 35 35 34 32 32 32 32 31 30 30 30 30 29 31 34 35 34 32 31 31 33 35 36 37 38 39 39 36 31 29 29 30 30 31 33 34 35 36
20 21 22 22 22 22 21 21 21 22 22 22 22 22 21 21 22 23 25 28 32 34 35 35 34 32 31 31 30 31 33 34 33 32 31 32 32 33 35 37 37 37 35 34 32 32 32 33 34 35 35 35 34 32 31 30 30 31 32 33 34 35 35
19 20 21 22 22 21 21 22 22 22 22 22 22 22 22 21 22 23 24 26 29 31 33 35 36 35 34 33 31 30 32 34 35 35 35 35 36 36 37 39 40 39 38 37 36 36 35 34 33 32 32 32 32 33 32 31 30 31 32 33 33 34 35
19 19 19 20 21 21 22 23 22 22 21 21 21 22 22 22 23 23 23 24 25 25 26 28 29 31 33 34 34 33 34 35 35 36 37 38 39 40 40 41 41 41 41 40 40 40 39 37 35 35 35 35 36 36 35 33 31 31 32 32 32 33 35
19 20 20 21 22 23 25 26 26 24 23 22 22 22 23 23 23 22 22 21 20 20 22 23 25 26 28 29 31 33 35 37 38 39 39 40 41 41 42 42 42 42 42 41 40 40 40 39 38 37 36 36 37 37 36 34 32 32 32 32 33 35 36
18 18 20 21 23 23 25 26 27 25 23 23 23 23 25 26 27 26 26 24 23 25 28 28 28 29 28 28 29 31 33 34 36 37 39 40 40 41 41 41 41 41 40 38 37 36 36 35 34 33 33 33 34 34 34 33 33 33 33 33 34 36 36
16 16 16 18 19 20 21 22 22 21 21 21 21 22 23 24 24 25 24 22 21 24 28 30 31 32 32 31 31 32 33 33 34 35 36 36 37 37 38 38 38 37 35 34 34 33 33 34 33 33 32 32 33 32 32 32 33 33 33 34 35 36 36
15 15 15 16 17 18 19 19 19 20 20 21 22 24 26 27 26 26 25 23 21 22 24 26 28 31 32 32 33 33 34 34 35 35 36 36 36 36 36 36 36 35 34 33 33 33 33 34 34 34 34 33 33 33 32 32 33 33 34 35 35 36 38
14 14 15 15 16 16 17 18 19 20 20 21 23 25 27 29 30 31 31 30 31 32 32 30 30 30 31 31 32 33 34 34 35 36 36 36 37 37 37 36 35 34 33 33 33 33 33 34 33 33 34 34 33 33 33 33 33 34 34 35 36 38 39
15 16 17 18 18 18 19 20 20 20 20 20 20 20 21 22 24 25 26 27 28 31 33 32 32 31 30 30 31 32 33 34 35 36 36 36 37 37 37 36 35 34 34 33 33 33 33 33 33 33 34 34 34 34 34 34 34 34 35 36 37 38 39
19 19 20 21 21 21 22 22 22 22 22 21 20 19 19 21 22 23 24 25 26 27 28 29 30 29 29 28 28 28 29 31 33 34 34 35 35 35 35 35 34 34 34 33 33 34 34 33 34 34 34 34 34 34 35 35 35 35 35 36 37 38 38
25 23 23 22 22 23 23 24 24 24 23 21 19 18 20 23 23 24 25 26 26 27 28 29 29 28 27 26 24 23 24 25 27 30 32 32 33 33 33 33 33 33 33 33 33 34 34 34 34 34 33 34 34 34 34 34 34 34 35 35 36 36 36
Wind_Direction
258 258 257 257 256 256 255 254 253 252 250 249 249 249 248 248 246 246 247 246 245 245 244 243 243 242 242 241 241 241 241 241 241 242 244 245 246 247 248 249 250 254 261 263 262 264 267 268 270 271 272 275 277 278 278 277 276 276 277 278 280 283 285
259 258 257 257 256 255 255 254 253 252 250 250 249 248 247 246 245 245 244 243 243 243 242 241 241 241 241 241 242 242 241 241 241 241 243 244 245 246 247 248 250 254 260 262 263 265 267 268 270 272 274 277 278 280 279 279 278 278 279 281 282 283 283
261 259 257 256 256 255 254 253 252 251 250 250 250 248 247 245 244 244 243 242 242 241 240 240 241 241 241 240 241 241 240 240 241 241 243 245 245 247 249 250 252 254 258 261 263 264 266 269 271 273 276 279 280 280 280 280 280 279 280 281 281 282 282
263 260 258 256 255 254 254 253 252 251 250 250 249 248 246 244 243 243 243 242 242 240 239 240 242 242 242 240 240 240 240 239 240 241 243 245 246 247 250 252 253 254 257 260 261 262 265 268 270 273 276 277 277 278 278 279 278 278 279 280 280 280 282
263 260 258 256 255 255 254 254 253 252 251 250 249 247 246 244 243 243 242 242 241 240 240 241 243 243 242 241 241 241 240 240 242 243 244 245 246 248 251 253 253 255 255 256 258 261 264 267 269 272 273 274 275 277 277 277 278 279 280 280 280 280 282
264 261 259 257 257 256 255 255 254 253 252 250 248 247 245 243 242 242 242 241 240 240 240 242 243 243 242 242 242 242 242 242 243 244 245 246 247 249 252 253 254 255 254 254 256 259 262 264 268 271 271 271 273 276 276 276 278 279 279 279 282 283 284
265 263 261 259 258 256 256 255 254 253 251 249 248 246 244 243 242 241 240 240 240 240 241 242 243 243 243 243 243 243 243 244 245 245 246 247 249 250 252 253 254 254 253 254 255 256 259 262 265 268 270 270 271 272 272 273 274 277 278 280 283 284 285
267 265 263 261 259 257 256 254 253 252 250 248 247 245 244 243 242 241 240 240 240 241 241 241 242 243 244 244 244 243 244 246 246 246 247 248 249 250 251 252 253 253 253 253 255 256 258 261 264 265 267 268 268 267 269 271 274 277 280 281 283 283 284
267 265 264 261 259 257 255 253 252 251 250 249 247 246 245 244 243 243 242 241 241 240 240 240 241 243 244 244 244 244 246 248 248 248 249 249 249 249 249 250 250 251 252 253 254 256 257 259 261 263 266 267 267 267 271 274 275 276 279 280 281 281 282
267 265 263 261 259 257 255 254 253 252 251 250 250 249 248 246 245 243 242 241 241 240 240 241 242 243 244 243 244 245 247 249 250 250 251 252 251 250 250 250 250 251 252 253 254 256 257 258 260 263 266 268 270 272 273 273 273 275 278 279 278 279 281
266 265 264 262 260 259 257 257 256 255 254 252 252 251 250 248 247 244 243 242 241 241 241 242 243 243 242 242 243 246 248 250 250 251 252 253 253 253 252 251 251 252 253 254 255 258 258 258 261 265 266 268 271 272 272 272 272 274 275 275 274 276 280
268 267 265 263 262 261 260 259 258 257 256 255 254 252 251 249 247 245 244 243 242 242 242 243 243 242 241 242 244 247 249 249 250 250 251 253 253 254 254 254 254 254 254 255 256 258 259 260 264 267 266 267 270 271 272 272 271 271 271 271 270 272 276
268 266 265 264 263 262 261 261 260 259 258 257 255 253 251 250 248 246 245 244 243 243 243 243 243 242 242 244 246 248 248 248 248 249 251 253 253 253 254 253 254 255 256 257 258 259 261 262 263 265 265 267 269 271 271 271 270 269 268 268 269 273 277
270 268 267 266 265 264 264 263 262 261 260 258 255 251 248 249 249 247 247 246 246 245 245 244 244 243 245 247 248 247 247 246 248 249 250 251 252 253 253 253 252 250 249 252 257 260 263 263 262 263 266 268 269 270 270 271 271 271 270 271 276 279 281
274 272 270 268 267 266 265 264 263 262 260 257 254 247 241 243 246 247 248 248 248 247 246 245 245 247 249 251 250 249 248 248 249 250 251 251 251 252 253 254 253 251 249 251 254 257 261 263 264 266 268 270 271 272 273 274 276 275 275 275 276 275 273
279 276 274 271 268 267 266 265 264 263 261 257 251 243 236 237 242 245 247 249 248 247 246 246 247 249 251 251 251 250 250 251 252 252 252 252 252 253 253 253 254 254 255 257 257 257 258 261 264 267 269 269 269 270 273 274 272 270 269 267 265 265 266
283 279 277 273 270 269 267 267 265 263 262 257 247 236 231 234 239 244 246 247 246 246 247 249 251 253 253 253 253 253 252 251 251 251 252 251 251 252 252 252 253 252 253 255 257 258 259 260 264 267 268 268 266 267 270 266 261 261 261 258 257 259 262
286 282 278 274 272 270 268 268 266 263 260 253 241 234 231 234 240 246 248 248 247 248 251 254 256 257 256 256 256 256 255 253 249 249 251 253 254 254 254 255 256 255 254 254 254 254 253 254 258 261 263 265 264 265 265 261 260 263 260 255 255 257 262
286 283 279 275 272 269 267 266 262 257 252 245 236 234 235 238 243 247 250 252 253 254 255 256 256 256 256 256 257 258 258 256 251 248 249 251 253 254 256 259 263 263 264 264 262 259 256 255 255 254 254 256 256 256 254 253 257 261 258 255 256 258 259
287 283 279 274 270 266 265 263 259 254 251 245 239 238 241 244 247 249 251 253 255 255 256 256 256 255 254 253 254 255 254 255 256 256 254 251 248 251 257 263 267 267 268 268 267 267 267 265 262 257 252 252 252 252 251 250 251 253 253 254 257 258 257
287 282 278 275 272 271 271 271 269 265 261 257 253 250 250 250 250 251 253 255 255 255 255 255 255 255 254 252 251 251 250 254 259 260 257 253 251 254 261 266 266 266 267 266 266 266 266 266 266 263 257 252 251 251 251 251 251 251 252 254 256 257 258
287 284 282 281 280 279 279 277 275 272 267 264 261 259 257 255 254 254 254 255 255 255 254 255 255 256 256 255 256 255 255 258 260 255 252 253 254 257 262 262 262 263 263 263 263 264 263 262 262 263 261 257 254 252 251 251 252 252 252 254 256 258 259
290 289 287 286 285 284 284 282 280 278 275 270 267 264 261 259 257 256 255 256 258 258 257 257 258 259 260 261 261 260 260 262 261 256 252 251 252 255 258 260 260 260 258 259 259 259 259 260 260 262 263 261 257 255 253 252 253 253 253 254 256 258 260
291 291 290 290 289 288 287 286 284 282 279 276 272 268 264 261 258 255 254 255 258 261 263 264 264 265 266 264 261 260 261 262 260 257 255 252 251 253 256 256 256 255 255 255 255 253 255 258 259 261 264 266 265 262 258 256 254 254 253 253 253 255 258
292 292 292 291 291 291 290 289 287 284 281 278 275 272 269 266 262 258 254 252 252 253 257 262 267 270 271 268 262 259 260 260 257 255 253 251 250 251 253 252 251 252 253 253 252 252 253 256 259 261 265 268 270 268 263 258 254 253 252 251 251 252 253
295 295 294 294 295 296 296 294 291 288 287 286 285 282 277 271 266 261 256 254 252 250 250 252 254 259 263 264 261 257 255 255 256 254 251 248 246 247 250 252 252 252 253 254 254 255 255 256 259 262 264 267 268 265 261 257 253 252 252 252 252 253 254
299 299 300 300 301 300 298 296 295 295 296 296 294 291 286 280 274 268 263 260 258 258 257 256 255 254 253 253 253 252 252 253 255 256 255 253 251 249 250 252 254 256 257 258 258 259 259 260 261 260 260 262 262 262 261 259 255 253 254 255 256 255 256
305 305 307 308 308 307 305 303 302 302 303 303 298 294 291 286 282 279 276 273 271 269 267 265 263 260 257 254 252 250 249 249 249 251 254 255 255 255 255 255 257 259 260 261 261 261 262 262 261 260 260 261 262 263 264 262 259 256 257 257 256 254 256
313 315 317 315 313 312 309 307 307 308 308 307 302 300 298 295 293 292 289 286 285 284 279 273 268 265 262 259 256 254 252 251 251 251 252 253 255 257 258 258 259 260 262 263 262 263 263 264 264 264 264 264 263 264 264 262 259 257 256 253 251 251 255
313 313 313 310 307 305 303 303 305 307 306 301 296 295 296 295 295 295 294 292 290 286 282 278 275 271 268 265 262 260 257 256 256 256 256 257 257 258 259 259 260 262 263 264 263 262 263 264 265 266 265 263 262 261 260 258 257 255 254 252 251 252 255
307 304 303 301 297 294 293 295 299 301 300 297 292 288 286 284 281 280 280 284 285 280 276 275 274 274 272 269 267 264 262 261 260 260 260 260 259 259 259 260 261 261 262 261 260 258 259 260 262 262 262 261 261 260 258 256 254 253 253 253 253 255 257
313 307 303 299 295 292 291 292 290 286 286 286 283 278 274 272 271 269 267 268 270 271 270 269 270 270 270 269 268 267 266 265 264 263 263 262 261 260 259 259 260 262 261 260 258 257 258 259 260 262 262 261 260 259 257 255 253 252 253 254 255 257 259
321 317 311 305 302 301 299 298 294 288 285 282 278 275 274 274 274 274 272 271 270 271 272 272 271 270 270 269 270 270 270 269 267 266 266 265 264 263 263 263 264 264 263 261 260 259 259 259 260 261 261 260 259 257 255 254 253 253 253 255 257 259 261
323 323 321 316 314 313 309 306 303 300 298 295 293 295 295 291 284 278 274 271 270 271 272 273 274 274 273 271 270 269 269 269 269 269 268 266 265 266 266 265 265 264 262 261 260 259 258 257 257 257 257 257 257 255 253 252 252 253 255 257 259 262 263
324 323 321 320 320 318 314 310 307 306 306 308 313 316 307 294 285 280 276 274 274 275 277 277 278 280 280 280 278 274 270 267 267 267 267 266 266 266 265 264 263 261 260 260 259 258 257 256 255 254 255 254 253 253 252 252 254 257 260 262 263 262 263
325 322 319 317 317 315 311 308 307 307 308 310 313 308 295 285 284 285 284 282 280 279 279 281 282 284 285 285 284 281 276 271 267 265 264 263 263 264 264 264 263 261 261 260 259 257 256 255 253 253 253 251 250 250 251 253 256 259 262 264 263 262 263
Height
1421 1420 1420 1420 1420 1421 1422 1423 1424 1425 1427 1428 1428 1429 1431 1432 1433 1433 1434 1435 1436 1437 1438 1439 1440 1441 1443 1445 1446 1448 1449 1449 1451 1452 1452 1453 1453 1454 1454 1455 1455 1453 1452 1454 1455 1456 1456 1456 1456 1456 1456 1457 1457 1458 1459 1458 1457 1457 1457 1456 1456 1457 1457
1416 1416 1415 1415 1415 1415 1416 1417 1418 1420 1421 1421 1422 1423 1425 1426 1427 1427 1428 1429 1430 1431 1432 1433 1434 1436 1438 1440 1441 1442 1444 1445 1446 1447 1448 1449 1449 1449 1450 1451 1451 1450 1449 1449 1451 1452 1452 1452 1451 1451 1452 1453 1453 1453 1454 1453 1452 1453 1452 1452 1452 1452 1452
1411 1411 1411 1410 1410 1411 1411 1412 1413 1414 1414 1415 1416 1417 1418 1419 1420 1421 1422 1423 1424 1425 1427 1427 1429 1430 1432 1434 1436 1437 1438 1440 1442 1443 1444 1444 1445 1445 1446 1447 1448 1447 1446 1445 1446 1447 1447 1447 1447 1446 1447 1448 1448 1448 1448 1448 1447 1448 1448 1448 1448 1448 1448
1407 1406 1406 1406 1405 1406 1406 1406 1407 1408 1409 1409 1410 1411 1412 1413 1414 1415 1416 1417 1418 1420 1421 1422 1423 1425 1427 1429 1430 1432 1434 1435 1437 1438 1439 1440 1441 1441 1442 1443 1443 1443 1443 1442 1442 1442 1443 1443 1443 1443 1443 1444 1443 1443 1443 1443 1443 1443 1443 1444 1444 1444 1443
1401 1401 1401 1401 1401 1401 1401 1402 1402 1403 1403 1404 1405 1406 1407 1408 1409 1410 1411 1412 1413 1414 1416 1417 1418 1420 1422 1424 1425 1427 1429 1430 1432 1433 1434 1435 1436 1437 1438 1439 1439 1439 1439 1439 1438 1438 1438 1439 1439 1439 1439 1439 1439 1439 1439 1438 1438 1438 1439 1439 1439 1439 1439
1396 1396 1396 1396 1397 1397 1397 1398 1398 1398 1398 1399 1400 1401 1402 1403 1404 1405 1406 1407 1409 1410 1411 1412 1414 1416 1418 1419 1420 1422 1424 1426 1428 1429 1430 1431 1432 1433 1434 1434 1434 1435 1435 1434 1434 1434 1434 1434 1434 1434 1434 1435 1435 1435 1434 1433 1433 1433 1434 1434 1434 1434 1434
1391 1392 1392 1392 1393 1393 1393 1393 1393 1393 1393 1394 1395 1396 1397 1398 1399 1400 1401 1403 1404 1406 1407 1408 1409 1411 1413 1414 1416 1418 1420 1422 1423 1424 1425 1426 1428 1429 1430 1430 1430 1430 1430 1430 1430 1430 1430 1430 1430 1430 1430 1430 1431 1431 1429 1429 1428 1427 1428 1430 1429 1429 1429
1387 1387 1388 1388 1388 1388 1389 1389 1388 1388 1389 1389 1390 1391 1392 1393 1394 1396 1397 1398 1400 1401 1402 1403 1405 1406 1408 1410 1413 1415 1416 1417 1419 1420 1421 1422 1424 1425 1425 1426 1426 1426 1426 1426 1426 1425 1425 1426 1425 1425 1425 1426 1426 1425 1424 1425 1425 1423 1423 1425 1425 1424 1425
1383 1383 1384 1384 1384 1384 1384 1384 1383 1384 1384 1385 1386 1387 1388 1389 1390 1391 1393 1394 1395 1396 1397 1399 1400 1402 1404 1406 1408 1410 1412 1413 1415 1416 1416 1418 1419 1420 1421 1421 1421 1421 1421 1421 1421 1421 1421 1421 1420 1420 1420 1420 1420 1419 1420 1422 1422 1419 1419 1420 1420 1419 1420
1379 1379 1379 1379 1380 1380 1379 1379 1379 1380 1380 1381 1382 1383 1384 1385 1386 1387 1388 1389 1390 1391 1392 1394 1396 1398 1400 1402 1404 1406 1407 1409 1410 1411 1412 1413 1415 1415 1416 1416 1416 1416 1416 1417 1416 1415 1416 1416 1414 1414 1415 1414 1414 1416 1416 1417 1417 1415 1415 1416 1415 1413 1415
1376 1375 1376 1376 1376 1376 1375 1376 1376 1376 1377 1378 1379 1380 1380 1381 1382 1383 1384 1384 1385 1386 1388 1390 1392 1394 1396 1398 1400 1402 1403 1404 1405 1406 1407 1408 1409 1410 1410 1411 1411 1411 1411 1412 1411 1410 1411 1410 1408 1409 1410 1410 1410 1411 1411 1412 1413 1412 1412 1412 1410 1409 1410
1372 1372 1372 1372 1372 1371 1371 1372 1372 1373 1374 1374 1375 1376 1376 1377 1377 1378 1379 1380 1381 1382 1384 1386 1388 1390 1392 1394 1396 1397 1398 1400 1401 1402 1403 1403 1404 1404 1404 1405 1406 1405 1406 1406 1406 1405 1405 1404 1404 1404 1404 1405 1406 1407 1407 1407 1408 1408 1407 1407 1407 1405 1405
1368 1368 1368 1368 1368 1367 1367 1368 1368 1369 1370 1371 1371 1372 1372 1372 1373 1374 1374 1375 1377 1378 1380 1382 1384 1386 1388 1390 1392 1393 1394 1395 1396 1397 1398 1398 1398 1398 1399 1400 1400 1400 1401 1401 1401 1400 1398 1398 1399 1399 1399 1401 1402 1403 1403 1402 1403 1403 1403 1403 1402 1401 1401
1364 1364 1364 1364 1364 1364 1364 1364 1364 1365 1366 1367 1367 1369 1368 1367 1368 1370 1371 1371 1373 1374 1376 1378 1380 1382 1384 1386 1387 1388 1390 1391 1392 1393 1393 1393 1393 1392 1392 1393 1394 1395 1396 1395 1395 1393 1391 1393 1394 1394 1394 1397 1398 1398 1397 1397 1398 1398 1399 1398 1398 1398 1398
1361 1360 1360 1360 1360 1360 1360 1360 1361 1361 1363 1363 1364 1366 1366 1364 1364 1366 1367 1368 1369 1371 1373 1375 1377 1378 1380 1381 1382 1384 1385 1386 1387 1388 1388 1387 1387 1387 1387 1386 1387 1389 1390 1390 1390 1388 1386 1387 1389 1390 1391 1392 1393 1393 1392 1393 1393 1394 1394 1394 1394 1393 1394
1357 1357 1357 1357 1357 1356 1356 1356 1357 1358 1359 1360 1361 1363 1364 1362 1361 1362 1364 1365 1366 1368 1369 1371 1373 1374 1375 1376 1377 1379 1380 1381 1382 1382 1382 1382 1381 1381 1381 1380 1381 1384 1385 1385 1384 1383 1383 1383 1384 1385 1386 1387 1388 1388 1388 1390 1389 1389 1390 1390 1389 1388 1388
1354 1353 1353 1353 1353 1353 1353 1353 1354 1355 1356 1357 1358 1360 1361 1360 1359 1359 1360 1361 1363 1364 1365 1367 1368 1369 1370 1371 1372 1373 1375 1377 1377 1376 1375 1375 1375 1376 1375 1375 1377 1380 1380 1380 1380 1380 1381 1381 1381 1382 1382 1383 1383 1383 1384 1385 1383 1383 1385 1385 1383 1382 1382
1351 1350 1350 1350 1350 1350 1350 1350 1351 1352 1353 1354 1356 1358 1358 1358 1357 1357 1357 1358 1359 1360 1361 1362 1363 1364 1365 1365 1366 1368 1369 1371 1371 1370 1369 1369 1369 1369 1368 1368 1371 1374 1374 1375 1376 1376 1377 1377 1377 1378 1379 1379 1380 1380 1381 1379 1377 1378 1381 1379 1378 1377 1377
1348 1348 1348 1348 1348 1348 1348 1348 1349 1350 1350 1352 1354 1355 1356 1356 1355 1354 1354 1355 1355 1356 1356 1357 1358 1359 1359 1360 1361 1362 1364 1365 1365 1364 1363 1363 1363 1362 1361 1363 1366 1367 1368 1369 1369 1370 1371 1372 1372 1373 1374 1374 1375 1376 1377 1376 1374 1375 1376 1374 1373 1374 1375
1346 1345 1345 1346 1346 1346 1346 1347 1347 1348 1349 1350 1351 1352 1353 1353 1352 1351 1351 1351 1351 1351 1351 1351 1352 1353 1354 1355 1356 1357 1358 1359 1360 1360 1359 1359 1358 1356 1356 1359 1361 1361 1362 1363 1363 1364 1365 1365 1366 1367 1368 1368 1368 1369 1370 1371 1371 1371 1371 1370 1370 1370 1370
1344 1344 1344 1344 1344 1345 1345 1345 1346 1346 1347 1347 1348 1349 1349 1349 1348 1348 1348 1347 1347 1347 1346 1346 1347 1347 1348 1350 1351 1352 1353 1354 1355 1356 1355 1354 1352 1352 1353 1355 1355 1356 1357 1357 1357 1358 1359 1359 1359 1360 1361 1362 1362 1363 1364 1365 1365 1366 1366 1366 1365 1366 1366
1343 1342 1342 1343 1343 1343 1343 1344 1344 1344 1344 1344 1344 1344 1345 1344 1343 1344 1343 1342 1342 1342 1341 1341 1342 1342 1344 1345 1346 1347 1348 1348 1350 1352 1351 1349 1349 1349 1351 1351 1350 1350 1351 1351 1352 1352 1352 1353 1353 1353 1354 1355 1356 1357 1359 1359 1360 1360 1361 1361 1361 1361 1362
1341 1341 1340 1340 1340 1340 1341 1341 1340 1340 1340 1340 1340 1340 1340 1339 1339 1340 1340 1338 1336 1336 1336 1336 1337 1337 1339 1340 1340 1341 1342 1342 1344 1345 1345 1345 1345 1346 1347 1347 1346 1345 1345 1345 1345 1346 1346 1346 1347 1347 1347 1349 1350 1352 1354 1355 1355 1356 1356 1356 1357 1357 1357
1340 1339 1338 1338 1337 1337 1337 1337 1337 1336 1336 1336 1336 1335 1335 1335 1334 1335 1335 1334 1332 1332 1332 1331 1331 1332 1333 1334 1334 1335 1336 1337 1338 1339 1339 1340 1341 1342 1342 1342 1341 1340 1340 1339 1339 1340 1340 1340 1341 1341 1341 1342 1345 1348 1349 1350 1351 1352 1352 1352 1352 1353 1354
1337 1336 1335 1335 1334 1334 1334 1333 1333 1332 1332 1332 1331 1331 1330 1330 1330 1329 1329 1328 1327 1327 1327 1327 1327 1327 1328 1329 1329 1330 1330 1331 1332 1333 1334 1334 1336 1336 1336 1335 1334 1335 1335 1334 1334 1334 1334 1335 1336 1337 1337 1338 1340 1343 1344 1345 1346 1346 1347 1348 1348 1348 1349
1334 1333 1332 1331 1331 1330 1330 1329 1329 1328 1328 1327 1326 1326 1326 1325 1325 1324 1323 1322 1321 1321 1322 1322 1322 1323 1323 1324 1324 1325 1325 1325 1325 1326 1327 1328 1329 1330 1329 1328 1329 1329 1330 1330 1330 1330 1330 1330 1332 1333 1333 1334 1335 1336 1337 1339 1340 1341 1342 1343 1343 1343 1344
1331 1330 1329 1328 1327 1327 1326 1325 1325 1324 1323 1323 1322 1321 1320 1320 1319 1319 1318 1317 1317 1316 1316 1316 1317 1318 1318 1319 1319 1320 1320 1320 1320 1321 1321 1322 1323 1323 1323 1323 1324 1324 1324 1325 1326 1326 1326 1326 1328 1329 1329 1330 1330 1330 1331 1333 1335 1335 1336 1337 1338 1338 1338
1328 1327 1326 1325 1324 1323 1322 1321 1321 1320 1320 1319 1318 1317 1316 1315 1315 1314 1313 1313 1312 1312 1312 1312 1311 1312 1312 1313 1313 1314 1314 1315 1315 1315 1315 1316 1316 1317 1318 1318 1319 1319 1319 1320 1321 1321 1321 1322 1323 1324 1324 1325 1325 1325 1326 1327 1328 1329 1330 1332 1333 1332 1332
1325 1325 1324 1323 1322 1321 1319 1318 1317 1317 1316 1315 1314 1313 1312 1311 1311 1310 1310 1309 1309 1308 1307 1307 1306 1306 1306 1307 1307 1308 1308 1308 1309 1309 1310 1310 1310 1311 1312 1313 1313 1313 1313 1315 1315 1316 1316 1317 1317 1318 1319 1320 1320 1320 1321 1322 1323 1324 1325 1326 1327 1326 1327
1324 1324 1323 1321 1320 1319 1318 1316 1315 1314 1313 1313 1312 1311 1310 1308 1307 1307 1306 1305 1305 1304 1303 1301 1301 1301 1301 1302 1302 1302 1302 1302 1303 1303 1303 1304 1305 1305 1306 1306 1307 1307 1308 1309 1310 1310 1311 1312 1312 1313 1314 1314 1315 1316 1317 1318 1318 1319 1320 1321 1321 1321 1322
1322 1322 1321 1319 1318 1316 1315 1313 1312 1311 1311 1310 1309 1309 1307 1305 1304 1303 1302 1302 1301 1299 1297 1296 1296 1295 1295 1296 1296 1296 1296 1297 1297 1297 1298 1298 1299 1299 1300 1300 1301 1302 1303 1304 1304 1305 1306 1307 1307 1308 1309 1310 1310 1312 1313 1314 1315 1315 1316 1316 1317 1317 1317
1320 1318 1317 1316 1314 1313 1311 1310 1309 1307 1307 1306 1305 1303 1302 1300 1299 1299 1299 1298 1297 1295 1293 1292 1291 1290 1290 1290 1290 1290 1290 1291 1291 1291 1292 1292 1293 1293 1294 1295 1295 1297 1298 1299 1299 1300 1301 1301 1302 1303 1304 1305 1306 1307 1308 1309 1310 1311 1311 1312 1313 1313 1313
1317 1316 1314 1312 1311 1309 1307 1306 1304 1303 1302 1301 1300 1298 1297 1295 1295 1294 1294 1294 1292 1290 1289 1289 1288 1287 1286 1286 1285 1285 1285 1285 1285 1286 1286 1286 1287 1287 1288 1289 1290 1292 1293 1293 1294 1295 1295 1296 1298 1298 1299 1300 1301 1302 1303 1305 1306 1306 1307 1308 1308 1308 1309
1315 1313 1311 1309 1307 1306 1304 1302 1300 1299 1298 1296 1295 1294 1293 1291 1290 1289 1288 1288 1287 1285 1284 1284 1283 1282 1282 1282 1282 1281 1281 1280 1280 1280 1280 1280 1281 1281 1282 1283 1285 1286 1286 1287 1288 1289 1290 1291 1292 1294 1295 1296 1297 1298 1299 1300 1301 1302 1303 1303 1303 1304 1304
1311 1310 1308 1306 1303 1301 1299 1298 1296 1295 1293 1293 1292 1291 1289 1287 1285 1284 1283 1282 1282 1281 1279 1279 1278 1277 1277 1277 1277 1277 1276 1276 1276 1276 1275 1275 1275 1276 1277 1277 1279 1280 1280 1282 1283 1283 1284 1286 1287 1288 1290 1291 1292 1293 1294 1295 1297 1298 1298 1299 1299 1299 1300
1306 1305 1304 1303 1301 1298 1295 1294 1292 1291 1289 1289 1288 1287 1284 1281 1280 1279 1278 1277 1277 1276 1274 1273 1273 1272 1272 1271 1271 1271 1271 1271 1271 1271 1271 1271 1271 1271 1272 1272 1273 1274 1275 1276 1277 1278 1279 1281 1282 1283 1285 1286 1287 1289 1290 1291 1293 1293 1294 1294 1295 1295 1296